sat.trackr.live / text

‹ back to catalog

TRANSPORTER-12 OBJECT CL

NORAD 62691 · 2025-009CL

PAYLOAD ACTIVE UNKNOWN

§ Identity

Operator
Country
TBD
Launch date
2025-01-14
Launch site
AFWTR
Launch vehicle
Mass (kg)
RCS (m²)

External: N2YO · Heavens-Above · Gunter

§ Orbital elements

Epoch: 2026-05-24T23:48:03.650688Z

Period
93.26 min
Inclination
97.3767°
Eccentricity
0.0000861
Mean motion
15.44072794 rev/d
Perigee alt
433.5 km
Apogee alt
434.7 km
Semi-major
6,812.2 km
B*
7.7265e-4
RAAN
229.7930°
Arg perigee
259.7895°
Mean anomaly
100.3256°
Rev number
7,561

§ Raw data

TRANSPORTER-12 OBJECT CL1 62691U 25009CL  26144.99170892  .00035326  00000+0  77265-3 0  99902 62691  97.3767 229.7930 0000861 259.7895 100.3256 15.44072794 75616

JSON: /api/v1/satellites/62691 · /tle

For live sub-satellite position, see the globe view (requires WebGL).

§ Visibility from observer

Set your observer location to see the next 7 days of passes ≥ 10°. The values pass through the URL so the page stays shareable.

No JS? Fill the form by hand. The geolocation button needs JavaScript.